IZ8GMP-13 Weather Reports


time (UTC)temp
F
wind
direction
speed
knots
gust
knots
rain 1hr
in
rain 24hr
in
rain mn
in
humidity
%
barometer
mb
20260504043525 60 0.0 0.0 0.00 0.00 0.00 53 1019.4
20260504041522 59 0.0 0.0 0.00 0.00 0.00 49 1019.3
20260504035518 59 0.0 0.0 0.00 0.00 0.00 49 1019.3
20260504033515 59 0.0 0.0 0.00 0.00 0.00 52 1019.4
20260504031511 58 0.0 0.0 0.00 0.00 0.00 50 1019.4
20260504025920 59 0.0 0.0 0.00 0.00 0.00 48 1019.3
20260504025508 59 0.0 0.0 0.00 0.00 0.00 48 1019.3
20260504023504 59 0.0 0.0 0.00 0.00 0.00 47 1019.3
20260504021501 59 0.0 0.0 0.00 0.00 0.00 47 1019.4
20260504015458 59 0.0 0.0 0.00 0.00 0.00 48 1019.4
20260504013454 59 0.0 0.0 0.00 0.00 0.00 48 1019.5
20260504011451 60 0.0 0.0 0.00 0.00 0.00 47 1019.5
20260504005447 59 0.0 0.0 0.00 0.00 0.00 49 1019.7
20260504003444 59 0.0 0.0 0.00 0.00 0.00 54 1019.7
20260504001440 60 0.0 0.0 0.00 0.00 0.00 43 1019.6
20260503225427 60 0.0 0.0 0.00 0.00 0.00 46 1020.0
20260503223423 60 0.0 0.0 0.00 0.00 0.00 46 1020.1
20260503221419 60 0.0 0.0 0.00 0.00 0.00 44 1020.0
20260503215416 60 0.0 0.0 0.00 0.00 0.00 61 1020.1
20260503213412 62 0.0 0.0 0.00 0.00 0.00 55 1020.2
20260503211409 60 0.0 0.0 0.00 0.00 0.00 53 1020.2
20260503205406 61 0.0 0.0 0.00 0.00 0.00 52 1020.1
20260503203402 62 0.0 0.0 0.00 0.00 0.00 53 1020.1
20260503201359 63 0.0 0.0 0.00 0.00 0.00 59 1020.1
20260503195355 63 0.0 0.0 0.00 0.00 0.00 59 1020.2
20260503193352 63 0.0 0.0 0.00 0.00 0.00 58 1020.3
20260503191348 63 0.0 0.0 0.00 0.00 0.00 59 1020.0
20260503185345 63 0.0 0.0 0.00 0.00 0.00 64 1019.9
20260503183341 63 0.0 0.0 0.00 0.00 0.00 62 1019.8
20260503181338 63 0.0 0.0 0.00 0.00 0.00 61 1019.6
20260503175334 64 0.0 0.0 0.00 0.00 0.00 60 1019.4
20260503173331 64 0.0 0.0 0.00 0.00 0.00 61 1019.3
20260503171327 65 0.0 0.0 0.00 0.00 0.00 57 1019.2
20260503131246 65 0.0 0.0 0.00 0.00 0.00 60 1019.8
20260503071143 65 0.0 0.0 0.00 0.00 0.00 51 1021.1
20260503053126 61 0.0 0.0 0.00 0.00 0.00 57 1020.9